TimeEDT,TemperatureF,Dew PointF,Humidity,Sea Level PressureIn,VisibilityMPH,Wind Direction,Wind SpeedMPH,Gust SpeedMPH,PrecipitationIn,Events,Conditions,WindDirDegrees,DateUTC
12:53 AM,82.9,64.9,54,30.13,10.0,ENE,16.1,21.9,N/A,,Clear,70,2013-05-26 04:53:00
1:53 AM,82.0,64.0,54,30.11,10.0,East,12.7,18.4,N/A,,Clear,80,2013-05-26 05:53:00
2:53 AM,81.0,64.0,56,30.09,10.0,East,11.5,-,N/A,,Clear,80,2013-05-26 06:53:00
3:53 AM,81.0,63.0,54,30.09,10.0,ENE,11.5,-,N/A,,Clear,70,2013-05-26 07:53:00
4:53 AM,81.0,66.0,60,30.08,10.0,ENE,11.5,-,N/A,,Scattered Clouds,70,2013-05-26 08:53:00
5:53 AM,81.0,64.9,58,30.09,10.0,ENE,10.4,-,N/A,,Partly Cloudy,70,2013-05-26 09:53:00
6:53 AM,81.0,63.0,54,30.10,10.0,ENE,10.4,-,N/A,,Partly Cloudy,70,2013-05-26 10:53:00
7:53 AM,82.0,61.0,49,30.11,10.0,ENE,11.5,-,N/A,,Clear,60,2013-05-26 11:53:00
8:53 AM,84.0,60.1,44,30.12,10.0,ENE,8.1,-,N/A,,Clear,70,2013-05-26 12:53:00
9:53 AM,86.0,60.1,41,30.14,10.0,ENE,10.4,-,N/A,,Clear,60,2013-05-26 13:53:00
10:53 AM,87.1,62.1,43,30.14,10.0,East,8.1,-,N/A,,Clear,90,2013-05-26 14:53:00
11:53 AM,88.0,62.1,42,30.14,10.0,East,8.1,-,N/A,,Clear,80,2013-05-26 15:53:00
12:53 PM,88.0,64.0,45,30.14,10.0,East,11.5,17.3,N/A,,Clear,90,2013-05-26 16:53:00
1:53 PM,89.1,63.0,42,30.13,10.0,ESE,9.2,18.4,N/A,,Clear,120,2013-05-26 17:53:00
2:53 PM,89.1,63.0,42,30.12,10.0,East,11.5,-,N/A,,Clear,80,2013-05-26 18:53:00
3:53 PM,88.0,64.9,46,30.09,10.0,East,11.5,16.1,N/A,,Clear,80,2013-05-26 19:53:00
4:53 PM,87.1,66.0,49,30.08,10.0,East,9.2,17.3,N/A,,Clear,90,2013-05-26 20:53:00
5:53 PM,87.1,64.0,46,30.07,10.0,ENE,12.7,19.6,N/A,,Clear,70,2013-05-26 21:53:00
6:53 PM,84.0,64.0,51,30.08,10.0,East,12.7,-,N/A,,Mostly Cloudy,80,2013-05-26 22:53:00
7:53 PM,84.0,64.9,53,30.09,10.0,ENE,12.7,18.4,N/A,,Mostly Cloudy,70,2013-05-26 23:53:00
8:53 PM,82.9,64.9,54,30.09,10.0,ENE,15.0,24.2,N/A,,Clear,70,2013-05-27 00:53:00
9:53 PM,82.0,64.9,56,30.10,10.0,East,9.2,19.6,N/A,,Clear,80,2013-05-27 01:53:00
10:53 PM,82.0,64.9,56,30.11,10.0,ENE,15.0,-,N/A,,Clear,70,2013-05-27 02:53:00
11:53 PM,82.0,64.9,56,30.12,10.0,ENE,13.8,20.7,N/A,,Clear,70,2013-05-27 03:53:00